Home   Weather   Salvador   Past weeks

Flag for Brazil Past Weather in Salvador, Bahia, Brazil — Yesterday and Last 2 Weeks

Now
77 °F

Passing clouds.


Feels Like: 79 °F
Forecast: 76 / 85 °F
Wind: 9 mph from East

Location: Salvador Aeroporto

Current Time: Jan 17, 2017 at 12:14:40 am

Latest Report: Jan 16, 2017 at 11:00 pm


Visibility: N/A

Pressure: 29.92 "Hg

Humidity: 74%

Dew Point: 68 °F

Location of SalvadorLocation

Past Weather in Salvador — Graph

°F

Salvador Temperature Yesterday

Maximum temperature yesterday: 86 °F (at 10:00 am)
Minimum temperature yesterday: 77 °F (at 2:00 am)
Average temperature yesterday: 81 °F

High & Low Weather Summary for the Past Weeks

 TemperatureHumidityPressure
High86 °F (Jan 2, 11:00 am)100% (Jan 5, 5:00 am)30.04 "Hg (Jan 5, 5:00 am)
Low73 °F (Jan 8, 12:42 am)55% (Jan 6, 12:00 pm)29.80 "Hg (Jan 14, 3:00 pm)
Average81 °F71%29.91 "Hg
* Reported Jan 1 11:00 pm — Jan 16 11:00 pm, Salvador, Weather by CustomWeather, © 2017

Note: Actual official high and low records may vary slightly from our data, if they occured in-between our weather recording intervals... More about our weather records

Advertising

Salvador Weather History for the Previous 24 Hours

Scroll right to see more
 ConditionsComfort  
Time TempWeatherWind HumidityBarometerVisibility
11:00 pm
Mon, Jan 16
77 °FPassing clouds.9 mph74%29.92 "HgN/A
10:00 pm79 °FPartly cloudy.14 mph74%29.92 "HgN/A
9:00 pm79 °FPartly cloudy.10 mph79%29.89 "HgN/A
8:00 pm81 °FPassing clouds.12 mph66%29.89 "HgN/A
7:00 pm81 °FPassing clouds.12 mph66%29.86 "HgN/A
6:00 pm81 °FPassing clouds.12 mph66%29.86 "HgN/A
5:00 pm82 °FScattered clouds.13 mph62%29.86 "HgN/A
4:00 pm84 °FScattered clouds.10 mph62%29.86 "HgN/A
3:00 pm84 °FScattered clouds.13 mph55%29.86 "HgN/A
2:00 pm86 °FPassing clouds.13 mph59%29.89 "HgN/A
1:00 pm86 °FScattered clouds.12 mph59%29.92 "HgN/A
12:00 pm86 °FScattered clouds.13 mph55%29.92 "HgN/A
11:00 am84 °FScattered clouds.12 mph62%29.92 "HgN/A
10:00 am86 °FScattered clouds.9 mph59%29.95 "HgN/A
9:00 am84 °FScattered clouds.12 mph62%29.92 "HgN/A
8:00 am82 °FScattered clouds.12 mph66%29.92 "HgN/A
7:00 am82 °FScattered clouds.10 mph66%29.89 "HgN/A
6:00 am79 °FScattered clouds.6 mph74%29.89 "HgN/A
5:00 am79 °FPassing clouds.6 mph74%29.89 "HgN/A
4:00 am77 °FPassing clouds.9 mph79%29.89 "HgN/A
3:00 am77 °FPassing clouds.6 mph83%29.86 "HgN/A
2:00 am77 °FPartly cloudy.5 mph83%29.86 "HgN/A
1:00 am79 °FPassing clouds.8 mph74%29.89 "HgN/A
12:00 am79 °FPassing clouds.10 mph74%29.89 "HgN/A
Weather by CustomWeather, © 2017

See weather overviewHow to use our weather pages